User: anonymous   Login
Location: Brno
(49.2000°N, 16.6330°E)
Time: 02:18:47
(UTC+02:00)
Language:

Cosmos 1459 Rocket - Orbit

View from above orbital plane
View from above orbital plane
View from above satellite
View from above satellite

Ground track
Ground track

The orbit data is extracted from the following two-line orbital elements,

1 14059U 83042B   16268.51820274 -.00000011  00000-0 -25554-4 0  9997
2 14059  82.9684 259.1041 0041296 293.8406 214.6669 13.78566041679157
Epoch (UTC): 24 September 2016 12:26:12
Eccentricity: 0.0041296
inclination: 82.9684°
perigee height: 938 km
apogee height: 999 km
right ascension of ascending node: 259.1041°
argument of perigee: 293.8406°
revolutions per day: 13.78566041
mean anomaly at epoch: 214.6669°
orbit number at epoch: 67915

The dashed part of the orbit path shows where the satellite is in the earth's shadow,  

DLR